Location: Seven Kings
(51.5667°N, 0.1000°E)
Time: 02:44:15
(UTC+00:00)

Cosmos 1825 - Pass Details

Date: 29 October 2020
Orbit: 502 x 508 km, 82.5° (Epoch: 24 November)

Event Time Altitude Azimuth Distance (km) Brightness Sun altitude
Rises 18:43:41 0° 348° (NNW) 2,628 6.0 -20.1°
Reaches altitude 10° 18:45:50 10° 346° (NNW) 1,736 5.1 -20.5°
Maximum altitude 18:49:37 74° 262° (W) 533 2.3 -21.0°
Enters shadow 18:52:10 20° 179° (S) 1,226 4.0 -21.4°
